Wetbulb
58.49 54.83 52.54 56.31 56.61 57.56 56.98 56.00 56.64 60.56 61.10 61.10 58.16 58.11 59.02 62.75 63.64 62.94 62.81 62.84 62.38 62.63 64.92 65.97 66.84 68.29 69.98 70.36 70.11 69.05 70.62 70.93 72.38 71.11 69.54 70.99 70.64 71.38 71.97 73.80 74.59 73.82 71.58 74.07
53.57 51.32 57.70 60.12 59.12 57.92 56.57 54.73 56.11 58.23 60.66 58.64 57.46 57.71 60.21 62.22 63.79 63.35 63.62 63.77 63.53 63.54 64.66 65.80 66.63 68.28 69.70 69.34 69.37 69.56 72.09 71.49 72.14 71.09 70.82 71.94 71.69 72.70 73.29 73.92 75.01 75.32 75.75 75.79
51.17 57.47 60.06 58.93 57.76 56.60 56.03 51.42 53.17 56.34 59.64 59.49 57.84 54.31 58.58 63.69 64.57 64.98 64.65 65.30 65.52 64.51 64.81 65.71 66.40 67.85 69.40 69.34 69.80 70.95 72.23 72.11 72.35 72.67 72.84 73.98 73.33 72.58 71.36 73.38 74.42 74.62 75.70 76.17
52.68 58.90 59.42 57.94 56.60 53.69 45.71 52.46 53.26 57.65 53.84 49.78 57.37 48.39 53.87 58.08 59.60 62.97 64.77 63.98 64.42 65.39 66.47 66.97 66.99 67.81 68.85 69.54 70.81 71.46 73.46 72.51 71.85 73.30 73.18 71.36 69.69 69.60 70.62 71.23 72.41 75.15 76.28 74.87
50.43 53.58 56.46 57.12 54.89 56.20 52.43 54.68 52.16 52.15 50.35 50.78 54.11 48.67 53.07 57.86 57.09 58.80 62.49 64.53 64.11 64.45 66.92 66.91 67.89 68.42 69.87 70.94 71.34 71.66 73.95 73.32 72.26 73.44 73.97 74.27 71.25 72.04 72.78 73.41 74.89 75.42 74.76 74.74
53.51 56.73 54.45 53.13 56.11 56.71 56.02 52.49 51.28 49.68 51.80 45.52 50.47 49.21 50.63 54.56 55.34 58.53 61.39 62.52 65.49 64.69 66.53 68.10 68.39 69.13 70.17 71.73 72.22 72.44 73.35 73.18 73.67 73.52 73.93 73.69 71.81 71.08 71.81 74.64 74.76 74.89 74.74 74.05
52.25 52.38 54.28 54.48 50.48 53.92 52.03 45.73 41.47 41.82 45.63 45.05 49.96 48.63 50.78 57.34 59.68 61.69 61.09 61.80 63.63 65.00 63.91 67.68 67.25 68.13 69.91 70.59 72.06 72.71 72.62 73.46 75.02 74.19 74.40 74.67 74.44 73.50 72.68 74.10 73.87 74.55 74.70 73.85
45.22 45.57 51.36 54.41 51.12 49.69 49.43 47.59 42.35 37.12 41.62 46.33 52.46 48.85 54.13 59.76 62.64 63.77 62.64 62.81 64.59 65.00 63.99 64.41 66.84 67.74 69.89 70.50 71.31 72.94 72.97 72.78 73.61 75.45 74.69 74.82 74.82 75.64 74.62 73.49 74.59 74.14 74.20 74.48
43.86 47.11 53.02 53.92 52.95 52.65 49.30 45.50 48.83 43.85 49.05 46.35 49.45 53.46 57.13 59.72 61.03 61.53 61.71 62.46 62.85 65.61 64.48 64.60 65.37 68.14 68.82 70.69 71.04 73.16 73.46 73.72 74.73 73.91 75.26 75.54 74.87 75.24 74.42 73.54 73.82 74.14 75.47 75.39
49.68 45.22 49.10 50.95 50.13 50.64 51.79 49.22 43.64 43.71 41.25 39.53 46.29 48.66 49.39 55.34 58.19 59.79 61.36 60.87 61.92 65.24 65.02 65.60 65.34 67.29 68.76 70.30 70.32 73.97 74.26 74.21 74.60 75.23 75.32 76.36 75.61 75.62 75.17 73.63 74.46 73.86 74.90 76.11
52.76 48.89 48.33 49.34 46.62 45.67 45.62 43.96 46.55 44.45 46.91 43.12 41.53 46.14 56.80 56.26 59.75 59.44 60.68 59.18 59.24 60.52 64.61 65.33 65.95 66.09 68.37 68.41 70.04 73.69 74.16 73.98 74.10 74.29 75.33 75.23 76.17 76.11 75.32 75.96 76.00 74.54 73.82 75.96
53.60 46.55 43.65 47.00 51.99 51.47 50.14 47.44 46.54 43.28 44.48 48.76 47.97 48.32 57.94 57.99 62.29 59.45 59.73 61.06 61.38 61.27 63.77 66.39 65.94 66.12 67.50 67.16 67.93 72.50 73.29 73.74 74.49 74.37 75.13 75.45 75.84 76.27 75.77 75.14 75.02 75.75 75.11 76.21
52.76 47.88 42.42 47.36 52.37 54.35 49.07 50.75 50.07 47.05 49.10 47.71 47.29 49.79 59.33 58.64 58.55 64.54 57.51 59.75 61.29 63.25 65.14 66.54 66.94 66.00 66.56 67.43 67.64 69.88 72.03 73.26 74.23 74.26 75.17 75.26 75.47 75.85 76.02 75.80 75.35 74.57 74.75 74.60
57.92 47.63 44.33 43.66 48.19 50.87 49.68 52.76 50.33 50.13 45.74 46.99 50.35 48.80 54.19 57.34 57.94 66.04 68.54 68.60 70.16 71.26 70.29 71.44 69.25 68.23 68.79 69.90 68.63 68.25 69.75 73.18 73.77 74.31 74.86 74.67 75.15 75.64 75.62 75.62 75.24 74.60 75.04 75.12
52.52 47.16 49.06 50.49 52.72 52.42 53.10 52.53 52.47 48.75 49.45 45.81 52.03 51.42 55.64 56.47 63.94 66.34 68.04 69.29 69.50 69.14 67.32 68.71 68.21 67.77 69.00 70.14 70.05 68.42 68.37 69.65 73.84 73.44 73.99 73.82 75.34 75.14 74.54 74.16 74.23 74.73 74.49 75.73
54.39 48.35 50.82 50.31 53.46 53.94 51.66 54.03 54.16 53.57 55.03 59.55 58.50 56.68 61.25 64.84 66.02 65.21 67.11 67.31 66.72 66.89 64.78 66.19 67.03 65.94 65.48 66.23 65.56 66.15 66.76 67.76 69.26 69.83 73.99 74.59 75.02 74.91 74.75 74.67 75.77 75.52 74.84 75.12
51.72 49.24 48.22 45.29 52.47 52.26 48.53 51.23 53.58 53.98 58.86 60.34 56.05 58.95 61.79 61.47 62.93 63.82 65.54 67.01 65.56 65.85 64.47 64.90 66.28 66.57 66.95 65.77 66.41 65.95 67.06 66.82 67.71 67.39 71.11 70.86 71.76 74.62 75.13 75.20 75.16 74.79 74.84 75.57
49.29 48.51 47.79 45.70 48.31 42.15 49.77 55.80 56.39 55.09 57.00 60.59 61.24 61.43 62.16 62.34 63.48 64.83 66.39 66.30 66.75 65.85 64.98 64.31 65.13 66.01 66.30 66.33 66.28 65.81 67.65 66.30 67.51 67.47 68.49 71.02 68.50 67.53 66.44 66.28 66.86 68.18 69.67 70.91
51.73 48.51 45.57 43.54 43.30 48.34 51.85 56.52 55.20 52.82 54.58 60.51 61.02 62.19 62.97 63.66 64.93 63.55 66.89 67.55 66.06 65.87 64.89 64.03 65.56 66.09 64.35 64.88 66.30 65.88 64.55 65.03 65.46 66.19 66.35 69.44 69.65 66.86 65.25 64.60 64.76 65.03 67.56 67.09
54.15 51.99 48.60 46.25 42.54 41.22 52.14 58.14 59.71 57.13 51.14 60.31 61.29 61.39 61.20 61.52 58.00 60.44 66.10 67.37 67.23 66.28 66.44 65.45 66.28 66.45 64.98 64.91 65.37 65.93 65.35 64.77 64.48 65.97 65.97 66.61 69.94 67.51 65.18 64.71 64.25 64.39 64.80 65.09
51.60 50.07 47.10 46.74 44.28 51.01 57.19 59.07 59.47 47.02 52.20 60.78 61.88 61.75 61.17 59.02 60.75 63.98 65.70 65.85 66.96 66.72 66.65 67.27 66.30 66.48 66.52 66.38 65.71 65.24 65.32 66.08 66.98 66.69 66.65 68.33 69.71 66.19 65.39 66.66 64.43 63.93 65.37 63.68
51.03 49.36 49.30 49.68 45.87 45.76 61.50 59.57 55.19 58.00 59.95 61.50 61.96 61.81 61.44 61.46 62.32 62.30 62.77 63.54 65.49 65.43 66.61 67.07 66.35 67.67 66.96 65.87 66.14 65.20 64.62 67.27 68.29 70.08 70.69 70.97 67.78 66.26 66.75 69.34 64.53 63.61 66.29 64.15
50.63 53.82 51.61 52.55 53.33 58.98 59.93 58.82 60.15 60.74 60.66 60.37 59.80 60.90 62.65 60.68 60.22 62.61 62.41 62.71 63.47 63.67 65.01 65.63 65.15 66.00 65.03 65.79 67.10 64.77 65.50 66.86 67.28 67.89 70.57 71.24 71.38 71.32 70.94 70.76 69.88 68.30 69.36 68.86
57.79 59.05 53.40 54.15 57.60 59.12 59.92 60.20 60.33 60.51 59.26 59.74 59.47 59.30 60.09 58.93 59.98 62.92 63.51 63.00 64.60 65.49 65.58 66.31 66.51 65.18 66.45 66.70 67.32 67.12 68.19 70.03 68.29 69.11 70.21 71.14 70.42 70.15 70.05 70.64 69.34 68.52 67.89 68.18
56.37 57.40 55.91 54.96 56.35 59.26 60.32 60.83 60.33 61.48 61.74 61.35 61.17 61.07 60.42 62.58 62.63 62.53 62.47 62.60 63.21 64.93 65.57 66.46 65.53 66.13 66.49 67.33 67.17 68.85 69.75 69.28 69.26 69.07 69.19 68.88 69.11 67.01 68.75 65.38 64.43 68.43 65.55 65.34
55.62 54.27 52.25 51.19 58.90 59.58 58.91 61.24 62.59 61.82 61.62 62.56 62.53 62.43 64.83 64.87 63.59 62.70 61.99 63.69 64.02 65.33 65.65 67.10 66.25 66.79 67.27 68.46 69.48 69.75 71.49 70.14 68.03 66.13 64.37 63.16 63.42 65.97 66.90 66.72 64.45 55.39 52.79 51.20
MSLP
1003.06 1003.74 1004.35 1003.40 1003.64 1003.87 1004.28 1005.78 1005.36 1006.06 1007.83 1008.33 1011.40 1011.78 1010.92 1009.40 1007.51 1007.53 1007.65 1008.04 1008.53 1009.07 1009.61 1010.06 1010.57 1011.25 1012.04 1012.70 1013.51 1014.04 1014.84 1015.52 1016.02 1016.59 1016.91 1017.04 1017.14 1016.82 1016.75 1017.04 1016.95 1017.50 1017.64 1017.48
1003.44 1003.54 1003.66 1003.28 1002.97 1003.24 1003.12 1004.16 1004.22 1006.26 1006.76 1009.05 1012.73 1011.43 1010.64 1008.85 1007.98 1007.86 1008.03 1007.55 1007.82 1008.48 1009.20 1009.74 1010.27 1011.10 1011.91 1012.71 1013.39 1014.07 1014.84 1015.51 1016.00 1016.29 1016.34 1016.69 1016.93 1016.68 1016.51 1016.91 1017.01 1016.96 1017.09 1017.21
1003.39 1003.44 1002.81 1002.17 1002.21 1002.51 1002.00 1002.31 1002.32 1004.34 1006.73 1010.08 1010.94 1011.39 1010.66 1008.03 1008.20 1009.54 1009.31 1007.62 1007.23 1007.78 1008.58 1009.23 1009.86 1010.63 1011.54 1012.38 1013.02 1013.77 1014.60 1015.17 1015.61 1015.95 1016.25 1016.67 1016.50 1016.90 1017.05 1016.90 1016.95 1016.79 1016.81 1016.96
1002.54 1002.12 1002.01 1001.75 1001.74 1000.70 1000.92 1000.53 1001.12 1003.21 1005.30 1007.53 1007.57 1009.44 1009.21 1008.70 1009.22 1009.08 1008.66 1007.75 1007.11 1007.40 1008.14 1008.51 1009.23 1010.20 1011.01 1011.76 1012.49 1013.22 1013.96 1014.71 1015.19 1015.66 1016.14 1016.47 1016.55 1016.87 1016.71 1016.56 1016.54 1016.61 1016.56 1016.66
1001.42 1000.97 1000.95 1000.71 1000.24 999.93 1000.16 1000.05 1001.08 1002.28 1004.28 1006.78 1008.25 1009.11 1009.56 1009.53 1009.62 1010.20 1009.84 1007.70 1007.25 1007.13 1007.76 1008.18 1008.62 1009.27 1010.00 1010.97 1011.94 1012.71 1013.51 1014.15 1014.72 1015.29 1015.65 1016.06 1016.26 1016.32 1016.14 1016.27 1016.48 1016.51 1016.61 1016.51
1000.68 1000.00 999.60 999.51 999.55 999.70 999.75 1000.12 1001.01 1002.04 1004.26 1007.67 1009.18 1009.92 1010.19 1010.22 1010.87 1009.54 1009.20 1009.27 1008.80 1007.23 1007.34 1007.65 1007.94 1008.54 1009.72 1010.50 1011.44 1012.31 1013.24 1013.74 1014.35 1014.97 1015.40 1015.76 1016.00 1016.13 1016.35 1016.27 1016.30 1016.57 1016.73 1016.86
1000.54 999.68 999.08 999.01 999.58 999.61 999.96 1000.79 1002.00 1003.41 1005.37 1008.37 1009.57 1010.05 1010.19 1009.97 1010.01 1008.66 1007.94 1009.58 1009.36 1008.05 1007.33 1007.49 1007.74 1008.13 1009.32 1010.13 1011.04 1011.92 1012.60 1013.32 1013.71 1014.30 1014.81 1015.14 1015.42 1015.70 1015.96 1016.06 1016.09 1016.46 1016.64 1016.83
1001.15 999.97 998.97 998.91 999.40 999.81 1000.24 1001.02 1002.19 1004.19 1006.53 1009.22 1010.51 1011.24 1009.54 1010.33 1009.80 1009.00 1007.92 1009.18 1010.06 1008.92 1007.21 1007.00 1007.41 1007.75 1008.60 1009.48 1010.41 1011.42 1012.16 1012.72 1013.20 1013.74 1014.16 1014.52 1014.86 1015.26 1015.40 1015.41 1015.62 1015.59 1015.99 1016.07
1000.60 999.45 998.41 998.46 998.67 999.40 1000.04 1000.63 1001.38 1003.98 1007.17 1009.83 1011.39 1011.41 1010.23 1010.16 1011.31 1008.76 1006.91 1008.50 1009.85 1008.80 1006.67 1006.59 1006.86 1007.43 1008.03 1008.82 1009.71 1010.60 1011.54 1012.18 1012.70 1013.10 1013.71 1014.18 1014.48 1014.83 1015.02 1014.97 1015.07 1015.21 1015.52 1015.48
1000.60 1000.58 999.15 998.54 998.61 998.98 999.54 1000.34 1001.54 1003.39 1007.58 1010.38 1011.28 1011.55 1011.12 1010.98 1013.34 1012.04 1011.26 1010.13 1009.01 1007.98 1006.59 1006.11 1006.33 1006.91 1007.39 1007.99 1008.92 1009.91 1010.79 1011.38 1011.89 1012.60 1013.24 1013.79 1014.19 1014.54 1014.84 1014.94 1014.95 1014.91 1015.32 1015.59
1000.78 1001.12 1000.50 999.38 999.31 999.67 999.83 1000.47 1001.50 1003.05 1006.00 1009.08 1011.05 1011.87 1012.52 1011.79 1011.58 1011.41 1009.65 1008.00 1008.13 1007.26 1007.71 1006.43 1006.21 1006.47 1006.81 1007.44 1008.33 1009.45 1010.35 1011.04 1011.57 1012.12 1012.56 1013.29 1013.88 1014.37 1014.78 1014.95 1014.90 1014.87 1015.08 1015.49
1001.33 1001.42 1001.60 1000.74 999.67 999.20 999.72 1000.29 1001.10 1003.00 1005.48 1007.33 1009.67 1012.18 1011.63 1011.37 1011.97 1009.93 1009.64 1008.90 1007.59 1006.64 1007.47 1006.99 1005.92 1006.29 1006.66 1007.09 1007.79 1008.80 1009.73 1010.43 1010.83 1011.36 1012.05 1012.73 1013.31 1013.90 1014.47 1014.72 1014.81 1014.93 1014.95 1015.12
1002.20 1002.28 1002.61 1001.55 1000.67 1000.36 1000.04 1000.18 1000.69 1001.70 1003.96 1006.91 1010.08 1013.21 1011.21 1010.20 1010.51 1010.83 1010.09 1010.38 1010.39 1009.50 1007.87 1007.38 1006.90 1007.18 1006.82 1007.46 1008.10 1008.47 1008.97 1009.54 1010.02 1010.66 1011.37 1012.13 1012.82 1013.32 1013.69 1014.02 1014.32 1014.67 1014.73 1014.77
1002.46 1002.75 1003.21 1002.97 1002.98 1002.53 1001.55 1001.18 1000.69 1001.47 1003.90 1006.81 1010.17 1012.92 1011.89 1010.64 1010.39 1010.16 1009.63 1009.87 1009.75 1009.35 1008.92 1008.11 1008.51 1007.67 1007.75 1008.93 1009.61 1009.54 1009.26 1008.96 1009.38 1010.10 1010.75 1011.38 1012.01 1012.50 1012.99 1013.39 1013.80 1013.97 1014.16 1014.38
1002.37 1003.08 1003.30 1003.00 1002.08 1001.92 1001.64 1001.66 1001.43 1001.54 1002.70 1005.23 1010.05 1010.59 1010.90 1009.65 1009.78 1009.90 1009.42 1009.42 1009.21 1009.29 1009.85 1010.22 1010.14 1010.24 1010.88 1011.00 1012.43 1010.92 1010.72 1010.12 1010.28 1010.41 1010.44 1010.81 1011.18 1011.69 1012.51 1013.23 1013.61 1013.86 1014.05 1014.01
1002.85 1003.54 1003.83 1003.39 1002.83 1002.65 1001.93 1001.93 1002.58 1002.04 1002.82 1005.11 1007.33 1008.80 1008.86 1008.82 1008.87 1009.31 1009.75 1009.78 1009.82 1010.26 1010.75 1011.07 1011.45 1011.74 1011.47 1011.24 1011.31 1011.34 1011.40 1011.25 1010.48 1011.26 1012.18 1011.77 1011.68 1011.96 1012.08 1012.50 1013.12 1013.30 1013.38 1013.66
1003.86 1004.28 1004.93 1004.58 1003.67 1002.85 1002.49 1002.47 1002.60 1002.57 1002.73 1004.66 1006.21 1007.34 1007.76 1008.32 1008.58 1008.89 1009.38 1009.71 1010.21 1010.71 1011.10 1011.75 1011.76 1011.78 1012.04 1011.70 1011.77 1011.54 1011.50 1011.57 1011.23 1010.96 1011.53 1012.49 1013.29 1012.54 1012.27 1012.20 1012.35 1012.84 1012.99 1012.71
1004.32 1004.79 1005.21 1005.54 1004.82 1004.33 1003.41 1002.13 1002.12 1003.13 1003.14 1004.06 1005.51 1006.56 1007.12 1007.67 1008.19 1008.69 1008.82 1009.33 1010.17 1010.75 1011.30 1011.93 1012.44 1012.22 1012.17 1011.89 1012.22 1011.92 1012.02 1011.29 1010.09 1011.54 1009.87 1011.35 1012.50 1013.64 1013.33 1013.13 1012.83 1012.83 1012.52 1012.47
1003.87 1004.65 1005.72 1005.86 1005.73 1004.69 1003.68 1003.24 1002.84 1003.24 1004.42 1004.52 1005.57 1006.55 1007.14 1007.48 1008.23 1008.98 1008.88 1009.31 1009.71 1010.21 1010.64 1011.32 1011.81 1012.08 1012.05 1011.95 1012.00 1012.39 1012.44 1012.09 1011.77 1011.62 1011.58 1011.64 1012.91 1013.61 1014.58 1014.49 1014.07 1013.46 1013.18 1012.45
1003.83 1004.37 1005.57 1006.09 1006.17 1005.45 1004.62 1003.69 1003.26 1003.15 1005.33 1005.38 1005.76 1006.54 1007.03 1007.22 1008.44 1009.01 1008.68 1008.87 1009.11 1009.38 1009.81 1010.70 1011.22 1011.63 1011.78 1011.68 1011.68 1011.88 1012.41 1012.48 1012.16 1011.93 1011.45 1011.56 1012.37 1013.08 1013.42 1013.94 1013.74 1013.54 1013.32 1013.35
1004.53 1005.34 1005.88 1006.14 1006.25 1005.64 1004.91 1004.32 1004.17 1004.96 1006.90 1006.11 1006.41 1007.10 1007.40 1007.97 1008.37 1008.49 1008.49 1008.56 1008.70 1008.97 1009.37 1009.75 1010.12 1010.77 1011.24 1011.34 1011.58 1011.96 1012.14 1012.01 1011.64 1011.50 1011.58 1011.85 1012.13 1012.45 1012.85 1013.21 1012.96 1012.66 1012.40 1011.95
1005.35 1006.00 1006.29 1006.13 1006.18 1006.44 1005.55 1005.09 1005.60 1006.43 1006.30 1006.45 1006.70 1007.08 1007.61 1007.95 1008.15 1008.22 1008.33 1008.39 1008.54 1008.71 1008.97 1009.25 1009.72 1010.14 1010.55 1010.71 1011.12 1011.72 1011.97 1011.65 1011.54 1011.56 1011.65 1011.65 1011.71 1012.22 1012.55 1012.42 1012.25 1012.28 1011.81 1011.80
1006.07 1006.13 1006.64 1007.09 1007.11 1006.48 1005.98 1006.16 1006.34 1006.46 1006.63 1006.75 1006.84 1006.99 1007.32 1007.65 1007.91 1008.01 1008.10 1008.12 1008.35 1008.74 1009.13 1009.20 1009.58 1010.27 1010.57 1011.00 1011.06 1011.23 1011.27 1011.39 1011.61 1011.79 1011.74 1011.57 1011.49 1011.52 1011.74 1011.59 1011.43 1011.31 1010.78 1010.47
1006.30 1006.08 1006.77 1006.96 1006.94 1006.59 1006.42 1006.27 1006.24 1006.35 1006.69 1006.75 1006.86 1006.97 1007.10 1007.61 1007.88 1008.59 1008.90 1008.89 1008.97 1009.13 1009.50 1009.69 1009.97 1010.30 1011.01 1010.90 1010.94 1011.02 1010.89 1010.91 1011.17 1011.27 1011.30 1011.25 1011.13 1011.02 1010.99 1010.85 1011.19 1011.57 1011.19 1010.74
1006.80 1006.60 1006.88 1007.05 1006.70 1006.53 1006.43 1006.41 1006.49 1006.62 1006.76 1006.95 1007.06 1007.06 1007.12 1007.57 1008.24 1008.78 1009.28 1009.43 1009.35 1009.44 1009.59 1009.87 1010.06 1010.26 1010.40 1010.54 1010.56 1010.60 1010.70 1010.71 1011.12 1011.28 1011.64 1011.44 1011.47 1011.40 1011.44 1011.39 1011.69 1011.67 1011.58 1011.56
1006.64 1006.51 1006.55 1006.74 1006.53 1006.47 1006.52 1006.41 1006.48 1006.62 1006.85 1007.01 1007.19 1007.17 1007.63 1008.03 1008.54 1008.83 1009.38 1009.50 1009.61 1009.79 1009.76 1009.83 1009.97 1010.01 1010.03 1010.12 1010.37 1010.42 1010.49 1010.87 1011.22 1011.27 1011.70 1011.84 1011.91 1011.92 1012.09 1012.53 1012.72 1012.33 1012.26 1012.08
Wind_Speed
8 2 7 16 7 12 16 16 15 19 15 15 10 14 25 18 19 18 16 16 13 12 13 11 9 10 16 12 10 8 10 8 7 3 3 2 3 3 1 5 9 7 4 4
7 6 14 13 11 13 16 18 22 18 22 19 17 23 26 27 12 17 16 19 18 15 16 14 14 13 16 13 10 9 11 8 8 5 3 2 2 2 2 4 5 6 7 6
8 4 7 19 19 15 16 10 7 24 11 25 23 4 12 9 13 13 13 18 20 19 20 18 15 17 18 16 14 11 10 9 7 7 3 2 2 2 0 2 3 4 5 4
10 9 11 15 14 9 5 6 8 12 9 7 8 4 4 4 2 21 22 15 15 17 20 19 17 18 19 16 15 13 13 10 8 7 3 5 5 4 4 4 3 5 5 4
15 10 18 13 8 7 6 6 4 7 4 7 6 5 5 6 9 8 10 4 10 11 23 19 20 19 21 19 17 15 13 13 8 8 6 4 5 4 2 3 6 5 4 5
12 7 4 2 6 6 5 7 9 7 7 5 2 2 5 4 4 10 4 6 11 9 19 20 18 19 21 18 17 16 14 15 11 9 8 7 6 5 1 2 5 4 3 4
10 9 5 3 5 10 5 4 6 7 5 2 6 7 8 3 2 11 19 10 13 10 8 20 17 16 21 20 19 17 17 15 13 13 9 8 8 7 6 6 4 5 4 3
6 10 9 5 7 7 7 4 5 4 4 7 4 2 7 6 1 11 22 16 17 14 8 10 13 15 21 21 19 19 17 15 14 12 13 8 8 4 5 5 4 4 4 5
4 13 8 8 5 9 11 5 7 8 7 7 1 4 12 13 14 24 26 16 17 18 10 10 8 15 15 20 19 20 18 15 14 15 9 9 7 7 6 7 5 4 2 7
7 6 3 4 2 5 4 3 8 5 6 4 3 5 7 2 6 2 10 6 9 11 6 8 8 11 13 19 14 20 19 18 16 14 11 8 9 7 6 6 7 6 5 6
5 0 10 5 5 7 5 5 4 2 9 8 4 5 7 7 4 12 15 27 10 15 7 9 8 7 14 12 15 18 16 15 13 12 12 10 8 9 7 6 6 7 6 7
6 2 6 9 10 9 6 8 5 6 3 5 6 3 16 12 9 8 4 13 17 18 9 11 13 9 14 13 13 18 17 16 15 14 13 12 10 9 9 8 7 6 7 5
5 6 6 10 15 19 5 9 5 3 6 5 7 7 13 16 16 9 9 7 8 12 16 11 7 0 7 10 10 16 17 17 15 13 13 13 12 11 12 11 9 6 7 7
5 4 3 4 12 13 7 15 7 3 6 2 10 16 12 18 6 7 6 6 5 14 15 11 5 8 8 8 7 7 10 16 15 14 13 13 13 13 12 10 9 9 7 7
1 5 6 5 5 4 3 6 18 4 3 8 24 18 19 7 4 2 8 8 12 16 16 14 15 13 13 14 1 11 11 12 8 3 10 10 12 9 7 7 6 7 7 10
9 6 9 9 7 11 7 9 11 6 10 23 20 9 11 11 8 7 6 5 9 12 10 10 16 13 11 9 9 10 11 11 11 12 10 3 6 6 7 7 6 8 8 7
7 5 6 7 10 12 6 1 12 7 17 19 14 12 7 8 8 7 8 8 7 10 7 8 8 6 6 5 6 9 7 8 13 10 10 9 13 2 2 2 2 2 4 7
5 5 2 5 7 6 3 6 4 7 11 16 17 12 11 9 8 7 7 8 7 8 8 7 7 4 3 2 6 1 2 1 8 8 7 6 3 4 4 5 5 5 3 4
6 2 2 2 2 7 3 7 4 3 8 10 15 14 11 8 10 6 8 8 8 8 7 8 8 8 5 5 4 6 5 6 2 3 4 4 4 3 4 7 7 2 2 3
4 1 5 3 1 4 1 8 10 5 6 9 12 10 8 7 6 3 6 7 6 8 6 11 10 9 7 6 5 5 5 3 5 6 7 3 5 6 7 7 8 5 4 2
3 3 2 4 3 3 5 8 8 3 5 7 11 10 12 8 5 4 5 5 6 6 8 6 9 12 9 8 7 6 6 7 8 7 6 4 6 6 7 7 5 5 5 7
2 2 3 3 2 3 8 4 5 6 5 7 7 7 7 6 6 5 5 4 6 5 3 4 4 5 8 7 7 7 6 5 5 4 4 4 5 4 4 6 6 7 6 5
2 4 2 2 6 4 4 9 6 7 5 3 5 3 6 5 1 6 7 7 5 2 3 2 5 8 4 4 7 6 6 7 7 7 7 7 7 6 6 5 5 2 3 3
5 6 3 5 4 3 7 6 5 5 4 4 4 3 1 5 6 9 9 6 7 6 6 6 6 4 7 4 4 6 6 6 6 7 7 6 5 5 4 2 2 1 1 3
2 2 3 2 2 6 4 4 5 7 7 4 5 5 4 8 7 7 6 7 5 4 5 4 4 2 1 7 5 5 4 3 5 4 5 4 2 3 1 3 2 2 1 1
2 4 4 6 4 4 5 7 5 3 4 4 5 2 9 9 7 4 4 4 3 4 4 2 2 2 1 2 4 3 4 6 3 4 2 4 3 5 6 3 2 10 9 10
Wind_Direction
274 181 197 244 226 240 253 254 223 126 150 93 329 312 295 284 183 175 169 164 162 166 157 158 164 138 141 135 129 144 121 147 137 150 164 230 202 196 262 161 183 192 195 198
287 259 225 246 262 263 276 293 88 136 162 95 139 267 277 266 190 173 177 170 166 168 159 164 172 146 147 147 142 141 137 154 152 164 203 142 168 205 221 177 192 177 159 172
244 162 28 276 276 273 263 216 124 156 186 107 147 170 290 225 109 123 247 178 167 172 163 167 179 155 149 153 157 150 152 159 161 173 201 179 94 47 26 196 186 169 171 165
241 189 184 249 249 274 44 34 6 153 148 146 216 209 182 247 342 164 236 188 173 169 169 170 176 160 156 163 161 157 155 161 178 185 183 184 180 180 203 193 178 177 176 149
242 242 226 217 263 317 271 4 346 297 82 97 14 79 311 29 6 4 323 170 181 174 169 176 176 163 166 160 167 167 159 166 177 180 200 207 186 199 235 185 146 157 165 175
266 269 327 290 320 285 355 319 294 271 135 56 91 51 346 52 304 300 282 343 289 197 168 179 178 170 166 166 165 166 166 176 175 180 194 207 215 220 166 186 161 160 187 189
274 250 238 151 307 319 294 306 318 357 60 183 150 45 227 207 278 309 298 297 293 224 197 179 182 176 163 169 168 171 174 179 176 181 188 194 211 207 212 191 177 162 184 190
259 279 206 200 183 233 286 251 167 324 145 139 31 324 269 38 118 247 268 270 270 246 192 169 184 176 164 172 171 174 178 181 181 173 193 190 195 202 203 210 196 202 183 177
343 330 146 179 179 171 271 325 253 91 31 68 194 252 306 101 157 252 248 258 257 230 175 173 169 178 160 172 175 172 176 181 180 189 177 188 192 200 203 216 220 230 180 173
316 338 234 164 44 306 229 266 351 3 126 82 309 283 255 30 211 159 61 75 0 346 182 168 178 162 163 173 166 168 174 176 179 179 185 185 195 202 209 215 224 223 169 175
344 134 291 98 187 212 286 290 270 168 131 141 172 279 348 290 90 141 133 109 274 275 288 200 194 176 168 160 167 167 172 174 175 178 179 183 184 198 208 233 231 222 197 185
345 252 317 257 274 201 223 219 200 126 347 92 126 336 340 352 110 89 128 170 225 225 219 253 192 198 171 173 164 165 172 174 180 181 174 187 190 186 202 221 231 223 214 194
339 326 347 339 1 335 11 313 358 16 99 183 113 302 292 327 343 137 168 225 257 301 253 259 238 166 176 176 176 164 177 181 181 175 175 183 190 191 202 212 216 220 220 218
136 253 197 176 187 230 330 341 296 63 86 103 128 171 207 258 286 337 44 89 101 57 38 27 145 236 67 18 307 214 172 176 174 174 174 178 190 197 206 211 208 208 208 213
301 316 354 324 24 232 38 10 354 68 20 111 157 160 204 176 147 28 30 24 40 41 42 39 37 49 70 97 125 66 61 54 36 161 169 181 188 185 177 201 209 215 211 221
346 333 5 328 131 254 232 131 200 346 66 106 125 133 184 177 144 110 113 61 51 59 52 39 52 49 41 50 62 65 57 46 63 52 8 247 184 189 188 194 199 209 218 225
335 350 11 303 346 337 67 6 23 34 61 127 129 154 143 95 80 90 94 86 80 89 83 63 67 56 41 30 54 61 51 39 21 56 58 35 341 1 98 142 145 307 260 219
285 320 340 274 9 357 264 308 359 337 46 106 113 117 120 132 115 105 115 104 99 104 111 100 109 93 75 21 91 103 322 58 125 236 106 123 81 344 72 82 96 75 78 48
228 236 323 142 267 276 57 18 4 331 35 95 121 129 132 143 118 90 87 113 124 126 146 135 130 148 164 149 159 135 124 116 148 291 198 111 103 80 332 1 41 354 32 76
337 353 124 339 327 290 132 27 357 40 36 29 55 85 86 61 96 193 128 125 128 150 144 153 157 154 168 186 165 128 133 151 212 232 285 18 187 183 190 204 201 215 202 212
64 340 250 212 208 105 16 18 344 36 199 58 77 62 65 76 145 165 104 91 166 170 169 172 153 174 193 188 180 187 186 213 224 240 253 244 218 218 197 212 210 237 226 162
88 33 323 317 217 85 325 27 89 193 80 77 94 93 90 118 120 126 133 151 182 187 206 217 215 151 168 170 147 158 184 225 244 257 240 250 244 228 201 208 202 205 214 237
49 121 156 78 179 207 68 100 81 60 105 69 55 70 160 147 293 212 199 189 192 158 23 43 78 121 171 144 152 168 221 212 213 226 231 221 216 201 208 224 226 249 251 226
36 24 76 74 180 153 95 92 106 99 66 28 12 344 6 100 58 58 41 46 74 92 99 68 52 86 147 172 188 190 233 212 218 244 230 224 225 231 198 238 254 177 30 354
230 85 84 324 263 122 155 119 57 73 55 26 342 326 320 92 85 90 56 29 32 68 60 91 93 3 310 172 203 210 174 187 261 278 274 280 276 271 335 30 349 312 45 29
244 223 158 210 172 136 140 105 55 102 173 91 0 34 51 95 94 84 87 18 12 34 11 93 116 135 232 175 160 212 178 159 187 262 14 356 35 36 24 28 13 29 40 28